Location: Buchdorf
(48.7842°N, 10.8275°E)
Time: 16:16:26
(UTC+00:00)

Cosmos 1408 Rocket - Pass Details

Date: 09 April 2020
Orbit: 600 x 632 km, 82.6° (Epoch: 25 May)

Event Time Altitude Azimuth Distance (km) Brightness Sun altitude
Rises 21:25:41 0° 347° (NNW) 2,931 8.1 -28.1°
Reaches altitude 10° 21:27:58 10° 344° (NNW) 2,015 7.1 -28.3°
Enters shadow 21:31:24 47° 314° (NW) 828 4.5 -28.6°
